Wind_Speed
15 14 13 12 10 9 9 8 6 5 4 3 2 1 1 1 1 1 2 3 4 4 5 4 5 5 6 6 7 7 6 6 6 6 7 7 7 6 6 6 6 6 6 6 6 6 6 6 6
17 16 15 13 12 11 11 9 8 6 5 4 3 2 2 2 2 2 3 4 5 5 6 6 6 6 7 7 8 8 8 8 8 8 8 8 8 8 8 8 8 8 8 8 8 7 7 7 7
18 18 17 15 14 13 12 11 9 8 7 5 4 3 3 3 3 4 5 5 6 6 7 7 7 8 8 9 9 9 9 9 10 10 10 10 10 9 9 9 9 9 9 9 9 9 9 8 8
20 19 18 17 15 15 14 12 10 9 8 7 5 5 5 5 5 5 6 6 7 7 8 8 9 9 10 10 10 9 10 10 11 11 11 11 11 11 11 11 11 11 11 10 10 10 10 10 10
20 19 19 18 17 16 15 13 12 10 9 8 7 6 6 5 6 6 7 7 7 8 9 9 10 11 11 11 11 11 11 11 11 11 12 12 12 13 12 12 12 12 12 12 12 12 11 11 11
20 20 19 18 18 17 16 15 13 12 11 9 8 8 7 7 7 7 7 7 8 8 9 10 12 12 13 12 12 11 11 12 12 12 13 13 14 14 14 14 14 13 13 13 13 13 13 13 13
21 20 19 19 18 18 17 16 15 14 13 11 10 9 9 8 8 8 8 9 9 9 10 11 12 13 14 13 13 12 12 13 13 13 14 15 15 15 15 15 15 16 15 15 15 15 15 15 15
21 20 20 20 19 19 18 17 16 15 13 11 11 11 9 8 9 9 9 10 10 10 11 12 13 13 14 14 14 13 14 14 15 15 15 16 16 17 17 16 17 17 17 17 17 17 17 17 18
20 20 20 21 21 19 18 18 17 16 14 13 13 12 9 9 10 10 10 11 11 11 11 12 14 14 14 14 15 14 14 15 16 16 16 17 17 18 18 19 19 19 19 19 19 19 19 19 19
21 20 22 22 21 20 18 17 17 16 15 14 14 12 11 11 11 11 11 12 12 12 13 14 15 16 16 16 16 15 15 15 16 17 17 18 18 19 19 20 20 20 20 20 20 20 20 20 20
21 22 22 21 21 20 19 18 17 16 16 14 14 12 12 12 12 12 13 13 13 14 15 16 16 17 18 18 17 16 16 17 17 18 18 18 19 19 20 20 21 21 21 21 21 21 22 21 22
21 21 21 21 21 20 20 19 18 17 16 15 14 13 13 13 14 14 14 15 15 15 16 17 17 18 19 19 18 18 18 18 18 18 18 19 19 20 20 21 22 22 22 22 22 22 23 24 24
21 21 21 21 21 21 20 19 18 17 16 16 15 14 14 15 15 16 16 16 15 16 17 18 17 18 19 19 19 19 19 19 19 20 21 21 21 21 22 21 22 23 23 22 23 24 25 24 25
21 21 21 21 21 21 20 19 18 18 17 16 15 15 16 16 16 16 16 15 15 16 16 17 18 18 19 20 20 20 20 20 20 21 22 22 22 23 22 23 23 23 24 24 24 25 26 25 26
20 20 20 20 20 20 20 20 20 19 18 17 16 16 18 18 18 17 16 16 17 17 18 19 19 19 20 20 21 22 23 22 22 23 23 22 23 24 23 23 23 24 25 26 26 26 26 26 27
19 18 19 19 19 19 19 19 19 19 18 18 17 17 18 18 19 18 18 19 19 19 20 20 21 21 21 21 22 24 24 24 23 24 24 24 24 24 24 24 24 24 25 26 26 26 25 26 26
17 17 17 19 18 18 18 20 19 18 18 17 17 17 18 19 19 19 19 20 20 21 21 22 22 22 23 24 24 24 25 25 25 25 24 24 25 25 26 25 25 25 25 26 27 26 26 26 26
15 15 16 18 18 17 17 19 19 19 18 19 19 18 19 19 19 20 20 21 21 22 22 23 23 24 25 25 25 25 25 25 25 25 25 25 25 26 26 26 26 26 26 27 27 27 27 27 27
16 16 16 17 17 17 17 18 19 19 20 20 19 19 18 18 19 20 20 20 20 21 21 23 24 25 26 26 26 26 25 25 25 25 24 25 26 26 26 26 27 27 27 27 27 28 28 28 28
16 16 16 17 18 17 18 18 19 19 20 20 20 19 19 19 20 20 20 20 20 21 22 23 24 25 25 25 25 25 26 26 26 25 25 26 26 26 26 26 27 27 28 28 28 28 28 28 29
15 16 17 17 17 17 18 18 20 19 20 21 21 21 21 20 20 20 20 21 22 22 23 24 24 23 23 24 24 25 26 26 26 26 26 26 26 27 27 26 27 28 28 28 27 27 28 29 29
14 16 16 17 16 16 17 16 20 20 20 20 21 22 22 22 22 22 22 22 22 23 24 25 25 24 24 24 24 25 25 25 25 26 27 27 28 27 27 27 27 27 27 27 27 27 27 28 28
15 15 16 16 17 17 18 18 18 21 20 20 21 21 21 22 22 22 22 22 22 23 24 25 25 24 24 23 24 24 24 24 25 26 27 27 27 27 27 27 27 26 27 27 27 27 28 28 28
14 15 15 16 17 17 18 18 18 21 20 20 20 20 20 21 22 23 22 22 23 23 24 24 25 25 24 24 24 24 25 25 25 26 27 28 28 27 26 26 26 26 26 26 27 27 27 27 27
13 13 12 13 15 16 19 19 19 21 20 20 20 20 20 21 21 22 22 22 23 23 24 25 25 25 25 25 24 25 26 26 26 27 28 28 28 28 27 27 27 27 27 26 26 26 26 26 26
13 13 13 14 14 16 19 19 19 20 20 20 20 20 20 20 21 22 22 23 23 24 24 25 24 24 24 25 25 26 27 27 27 27 27 28 27 27 28 28 28 28 27 26 26 25 25 25 25
14 14 16 16 16 16 18 19 20 19 19 18 18 18 18 20 21 21 22 22 23 23 24 24 24 24 24 25 27 27 28 28 27 26 27 27 27 27 26 26 26 26 26 26 25 24 24 24 24
15 16 17 16 16 17 17 18 17 18 17 17 17 17 18 19 20 21 21 22 23 23 24 24 23 24 25 26 27 28 28 27 27 27 27 26 26 25 25 25 25 24 24 24 23 23 23 23 24
15 16 17 17 17 17 17 18 19 19 17 17 18 18 18 19 20 20 21 21 22 22 23 23 23 24 25 25 26 26 26 26 25 25 25 25 25 25 25 24 24 23 23 22 22 22 22 22 23
14 15 15 16 17 18 18 19 19 19 18 17 17 17 18 19 20 20 20 21 21 22 22 23 24 25 25 25 25 25 25 25 25 25 25 25 25 24 24 24 23 23 22 22 21 21 21 20 20
Wind_Direction
212 210 209 210 210 207 210 211 208 195 192 187 181 188 236 314 353 336 327 325 322 319 313 303 300 299 298 298 297 294 290 285 283 282 283 286 289 292 294 297 302 306 307 307 310 313 316 318 320
215 213 212 212 209 212 218 218 213 212 209 203 203 217 245 268 287 289 307 314 310 310 307 301 299 296 293 294 295 290 289 287 286 285 284 286 290 291 292 295 297 300 300 299 299 300 304 305 308
216 215 215 214 211 210 221 221 219 221 217 215 216 231 257 280 284 293 304 307 300 303 303 301 300 297 293 291 292 289 288 289 288 287 285 286 289 289 289 291 292 293 294 295 294 294 296 296 297
217 217 217 217 217 218 220 221 221 223 219 224 233 242 262 281 293 300 304 304 301 299 302 304 302 298 294 292 291 289 289 292 291 289 287 286 286 288 286 287 287 287 287 288 290 290 289 289 289
218 218 218 219 221 224 224 224 224 227 227 234 246 249 265 282 292 297 299 298 299 301 299 301 304 297 293 291 289 288 290 292 291 290 286 284 284 285 286 286 284 283 283 284 284 284 284 283 283
217 218 220 221 224 226 226 226 226 227 232 238 247 254 270 284 292 296 296 293 298 301 299 294 297 293 290 289 287 286 287 289 289 289 287 284 283 283 283 283 281 281 280 280 278 277 278 279 278
214 216 218 220 224 226 226 227 228 231 238 242 253 263 276 283 291 294 297 298 299 297 297 294 295 291 287 287 286 285 286 287 287 288 288 287 285 282 282 282 280 278 277 275 274 275 275 274 275
213 215 219 222 223 226 227 229 232 235 241 250 255 263 273 283 291 293 296 299 301 298 295 294 294 289 284 284 283 284 286 288 287 287 288 287 284 283 283 282 280 279 276 274 271 272 273 272 273
212 214 219 222 223 225 228 231 234 239 246 256 262 268 274 289 294 295 297 298 299 298 295 293 294 290 284 284 283 283 283 287 288 289 289 287 285 284 284 284 282 280 278 275 273 272 271 272 273
210 211 219 222 223 225 228 233 236 243 251 256 263 268 276 286 289 294 296 295 295 294 292 291 291 290 286 288 285 284 284 285 288 290 290 288 285 284 285 284 282 279 278 277 275 273 272 272 272
212 214 219 221 223 226 230 234 238 244 250 255 262 268 276 281 285 288 291 293 292 291 290 291 289 287 286 286 285 285 286 286 287 289 288 287 285 284 283 281 281 278 277 276 275 274 272 272 273
215 217 219 222 225 228 232 235 241 244 246 252 261 267 274 280 283 285 287 288 287 287 287 288 290 288 287 287 285 286 285 284 285 287 287 288 287 284 282 280 281 279 277 276 273 273 274 273 271
216 217 220 223 226 230 234 239 245 250 253 257 263 270 279 281 281 280 282 284 284 284 286 285 288 290 290 289 285 286 286 285 286 287 287 288 287 285 283 280 280 277 276 277 276 274 275 276 272
215 218 221 224 227 231 237 242 249 254 259 259 262 270 279 281 281 282 281 283 283 284 285 285 287 289 289 287 288 287 286 286 286 287 287 287 285 284 283 282 280 277 277 278 277 275 276 276 274
215 219 224 227 230 235 240 245 251 256 259 264 268 274 278 278 281 281 281 282 283 284 285 285 286 287 289 288 288 288 287 286 286 287 288 287 286 283 281 281 280 277 277 278 276 276 276 275 273
216 220 226 231 233 237 241 246 250 255 260 264 270 274 277 278 279 279 280 282 284 284 283 283 284 287 287 288 289 288 288 286 285 286 287 287 286 283 280 279 280 279 278 279 277 275 275 274 272
219 219 227 236 239 243 244 246 253 258 261 265 269 272 279 281 280 280 280 281 283 282 282 283 285 288 289 289 289 287 286 285 284 284 285 285 284 283 280 279 280 280 279 278 277 274 273 273 271
219 223 232 240 243 245 250 255 260 260 262 266 270 273 278 281 283 283 282 282 282 281 281 284 285 287 288 288 288 287 286 283 283 282 283 285 286 285 282 280 279 278 277 277 276 274 273 273 270
220 226 235 241 244 245 249 255 260 262 262 266 270 274 277 278 282 284 285 284 283 283 284 285 287 288 289 288 288 286 286 284 284 285 286 287 287 287 284 282 281 278 277 277 276 274 274 273 271
225 230 238 243 245 247 251 256 260 261 263 266 269 273 274 277 282 283 283 283 285 285 286 287 289 290 290 292 291 287 285 283 284 286 288 288 288 287 285 282 281 280 278 277 277 276 274 272 272
230 232 239 245 249 254 259 262 263 262 265 268 270 273 273 276 281 281 283 284 285 285 288 291 292 292 292 293 294 291 288 284 283 286 288 289 289 288 285 284 282 281 279 279 278 275 274 274 273
234 238 244 252 259 262 263 264 265 268 269 271 271 272 273 275 277 279 282 284 286 286 290 295 295 292 291 292 295 291 289 287 287 287 288 290 289 288 286 285 283 281 280 281 280 278 277 276 275
235 242 249 255 260 263 265 264 266 270 271 271 271 272 273 275 278 280 282 284 287 288 291 294 295 291 290 292 294 292 290 290 291 289 289 291 290 288 286 286 286 284 283 281 281 280 278 278 276
244 249 255 260 265 266 265 264 267 272 276 273 273 273 273 275 278 281 282 283 285 288 291 293 295 293 291 293 292 291 290 290 290 290 290 290 290 288 287 286 286 285 284 282 282 281 278 277 275
245 251 261 265 266 266 266 268 269 273 277 275 274 274 274 275 277 279 282 283 285 289 290 292 292 293 293 294 294 294 292 289 289 289 289 290 290 288 288 287 284 284 283 283 282 282 282 279 277
248 248 254 261 267 269 272 273 274 278 279 277 276 274 273 274 276 278 282 285 287 290 292 293 292 294 295 295 296 295 294 291 289 289 290 291 289 287 287 287 286 285 285 284 284 282 282 281 279
251 251 254 263 269 270 275 278 281 283 283 280 277 273 272 273 275 278 282 286 289 291 293 296 296 297 295 295 296 297 295 291 289 290 291 291 289 288 288 287 286 285 284 283 282 280 280 280 279
254 257 260 266 269 272 277 281 283 285 285 281 277 272 272 274 276 279 282 287 291 292 293 296 297 298 299 299 299 298 294 292 290 290 290 292 291 290 289 289 287 287 286 284 283 282 279 279 279
261 262 265 265 263 269 275 278 283 284 282 282 281 276 273 274 275 279 283 287 289 291 294 296 298 299 301 302 302 301 297 295 293 293 293 293 292 290 290 288 288 287 285 284 283 283 281 279 278
267 268 269 268 271 271 275 280 284 285 283 282 280 276 274 275 276 279 282 286 289 292 294 297 299 300 302 303 303 303 301 299 297 296 295 294 292 291 290 288 286 283 281 281 282 283 282 279 278
Height
5901 5903 5905 5908 5910 5912 5913 5914 5914 5914 5915 5915 5915 5915 5915 5915 5916 5917 5914 5912 5912 5912 5911 5911 5911 5910 5910 5909 5908 5908 5907 5907 5906 5905 5905 5904 5904 5903 5903 5902 5902 5902 5901 5900 5900 5900 5900 5899 5899
5898 5900 5903 5906 5908 5911 5912 5912 5912 5913 5914 5914 5914 5914 5914 5914 5913 5913 5912 5911 5911 5910 5909 5909 5909 5909 5908 5908 5907 5906 5905 5905 5904 5904 5903 5903 5902 5902 5901 5901 5900 5900 5900 5899 5899 5898 5898 5898 5897
5895 5898 5901 5904 5907 5910 5910 5910 5911 5911 5912 5912 5912 5913 5913 5913 5912 5911 5911 5910 5909 5909 5908 5908 5907 5907 5906 5906 5905 5904 5904 5903 5903 5902 5902 5901 5900 5900 5899 5899 5898 5898 5897 5897 5897 5896 5896 5896 5895
5893 5896 5899 5903 5904 5905 5906 5908 5909 5909 5910 5911 5911 5911 5911 5911 5910 5910 5909 5908 5908 5907 5906 5906 5906 5905 5904 5904 5903 5903 5902 5901 5901 5900 5900 5899 5898 5898 5897 5897 5896 5896 5895 5895 5894 5894 5894 5894 5893
5890 5893 5897 5899 5901 5902 5904 5905 5906 5908 5909 5909 5910 5910 5909 5909 5908 5908 5907 5907 5906 5905 5904 5904 5903 5903 5902 5902 5901 5900 5900 5899 5899 5898 5897 5897 5896 5895 5895 5894 5894 5893 5893 5892 5892 5892 5891 5891 5891
5888 5891 5894 5896 5898 5899 5901 5902 5904 5906 5907 5907 5908 5908 5907 5907 5906 5906 5905 5904 5904 5903 5902 5901 5901 5900 5900 5899 5898 5898 5897 5897 5896 5895 5894 5894 5893 5892 5892 5891 5891 5890 5890 5889 5889 5889 5888 5888 5888
5885 5888 5891 5894 5895 5897 5899 5900 5902 5904 5905 5905 5906 5905 5905 5905 5904 5904 5903 5902 5901 5900 5900 5899 5898 5897 5896 5896 5895 5895 5894 5894 5893 5892 5891 5891 5890 5889 5889 5888 5887 5887 5886 5886 5886 5885 5885 5884 5884
5881 5886 5888 5890 5892 5894 5896 5898 5900 5901 5902 5903 5903 5903 5903 5903 5902 5901 5900 5899 5899 5898 5897 5896 5895 5894 5893 5892 5892 5891 5891 5890 5890 5889 5888 5887 5886 5885 5885 5884 5883 5883 5882 5882 5882 5881 5881 5880 5880
5878 5884 5885 5887 5890 5892 5894 5896 5898 5899 5900 5901 5901 5901 5901 5900 5899 5899 5898 5897 5896 5895 5894 5893 5892 5890 5890 5889 5888 5887 5887 5887 5886 5885 5884 5883 5882 5881 5881 5880 5879 5879 5878 5878 5877 5877 5877 5876 5876
5876 5880 5881 5884 5887 5890 5891 5893 5895 5897 5898 5898 5899 5898 5898 5897 5897 5896 5895 5894 5893 5892 5892 5890 5889 5888 5887 5886 5885 5884 5883 5883 5882 5882 5880 5879 5878 5877 5876 5875 5875 5874 5873 5873 5873 5872 5872 5872 5871
5872 5875 5878 5881 5884 5887 5889 5891 5893 5895 5896 5896 5896 5896 5895 5895 5894 5893 5892 5891 5890 5889 5888 5887 5886 5885 5884 5883 5882 5881 5880 5879 5878 5877 5876 5875 5874 5873 5872 5870 5869 5869 5868 5868 5868 5867 5867 5866 5866
5870 5872 5876 5879 5881 5884 5886 5888 5890 5892 5893 5893 5893 5893 5892 5892 5891 5890 5889 5888 5887 5886 5885 5884 5883 5881 5880 5879 5879 5877 5876 5875 5874 5873 5872 5871 5869 5868 5867 5865 5864 5863 5863 5862 5862 5861 5861 5860 5860
5868 5870 5873 5876 5879 5881 5884 5886 5888 5889 5889 5890 5890 5890 5889 5889 5888 5887 5886 5885 5884 5883 5882 5881 5879 5878 5877 5876 5875 5873 5872 5871 5870 5869 5868 5866 5864 5863 5862 5860 5859 5858 5857 5857 5856 5856 5855 5855 5855
5865 5868 5871 5874 5876 5879 5881 5884 5885 5886 5886 5887 5887 5887 5886 5886 5884 5884 5883 5882 5881 5880 5879 5878 5876 5875 5873 5872 5870 5869 5868 5866 5865 5864 5863 5861 5859 5858 5856 5855 5854 5853 5852 5851 5850 5850 5849 5849 5849
5864 5867 5870 5872 5874 5877 5880 5881 5882 5883 5883 5884 5884 5883 5883 5882 5881 5880 5880 5879 5878 5876 5875 5874 5872 5871 5869 5868 5866 5865 5863 5862 5860 5859 5857 5856 5854 5853 5851 5850 5849 5847 5846 5846 5845 5844 5843 5843 5843
5863 5866 5869 5870 5872 5874 5879 5879 5879 5879 5880 5880 5880 5880 5879 5878 5878 5877 5876 5875 5873 5872 5871 5870 5868 5866 5865 5863 5862 5860 5858 5856 5855 5853 5852 5850 5849 5847 5845 5844 5843 5842 5840 5840 5839 5838 5837 5837 5836
5862 5866 5867 5868 5870 5872 5875 5875 5875 5876 5877 5877 5877 5877 5876 5875 5874 5873 5872 5871 5869 5868 5867 5865 5864 5862 5860 5858 5856 5854 5853 5851 5850 5848 5846 5845 5843 5841 5839 5838 5837 5835 5834 5833 5832 5832 5831 5830 5830
5861 5864 5865 5866 5867 5869 5871 5871 5872 5873 5873 5873 5873 5873 5872 5871 5870 5869 5868 5866 5865 5863 5862 5861 5859 5857 5855 5853 5851 5849 5847 5846 5844 5842 5841 5839 5837 5835 5833 5832 5830 5829 5828 5827 5826 5825 5825 5824 5823
5859 5861 5863 5864 5865 5866 5867 5868 5868 5869 5869 5869 5869 5869 5868 5867 5866 5865 5864 5862 5861 5859 5858 5856 5854 5852 5850 5847 5845 5844 5841 5840 5838 5836 5835 5833 5831 5828 5826 5825 5824 5822 5821 5820 5819 5818 5818 5817 5817
5857 5859 5860 5861 5862 5863 5864 5864 5864 5865 5865 5865 5865 5865 5864 5864 5863 5861 5860 5858 5856 5855 5853 5851 5849 5847 5844 5842 5839 5837 5835 5834 5832 5830 5829 5826 5824 5822 5819 5818 5817 5816 5814 5813 5812 5812 5811 5811 5810
5854 5856 5857 5858 5859 5860 5861 5861 5861 5861 5861 5861 5861 5860 5860 5859 5858 5857 5855 5854 5852 5850 5849 5846 5844 5841 5838 5836 5834 5831 5829 5827 5826 5824 5822 5820 5817 5815 5813 5811 5810 5809 5808 5806 5805 5804 5804 5803 5803
5851 5852 5854 5855 5856 5857 5858 5859 5858 5857 5857 5857 5856 5856 5855 5855 5854 5852 5851 5849 5847 5845 5843 5841 5838 5836 5833 5830 5828 5825 5823 5821 5820 5818 5816 5813 5811 5808 5806 5804 5803 5801 5800 5799 5798 5797 5797 5796 5795
5847 5849 5850 5851 5853 5854 5854 5855 5856 5853 5852 5852 5852 5851 5850 5850 5849 5848 5846 5844 5842 5840 5838 5836 5833 5830 5828 5825 5823 5820 5818 5816 5814 5812 5810 5807 5804 5802 5799 5798 5796 5795 5793 5792 5791 5790 5789 5789 5788
5844 5846 5847 5848 5849 5851 5850 5851 5851 5849 5848 5847 5847 5846 5846 5845 5844 5842 5841 5839 5837 5835 5833 5830 5828 5825 5823 5820 5817 5814 5812 5810 5808 5806 5803 5800 5798 5795 5793 5791 5790 5788 5787 5786 5784 5783 5782 5781 5780
5842 5844 5846 5847 5848 5848 5846 5846 5846 5844 5843 5842 5842 5841 5840 5839 5838 5837 5836 5834 5832 5829 5827 5825 5822 5820 5817 5814 5812 5809 5806 5804 5802 5799 5797 5794 5791 5789 5787 5784 5783 5781 5780 5779 5777 5776 5775 5774 5773
5839 5841 5844 5845 5845 5844 5841 5841 5841 5839 5838 5837 5836 5836 5835 5834 5833 5832 5830 5829 5827 5824 5822 5819 5817 5814 5811 5808 5806 5803 5800 5797 5795 5792 5790 5787 5784 5782 5780 5778 5776 5774 5773 5771 5770 5769 5768 5767 5766
5836 5837 5838 5839 5838 5839 5838 5836 5835 5833 5832 5831 5831 5830 5829 5829 5828 5826 5825 5823 5821 5819 5816 5814 5811 5808 5805 5803 5800 5797 5794 5791 5788 5785 5782 5780 5777 5775 5773 5771 5769 5767 5766 5764 5763 5762 5761 5760 5759
5833 5833 5833 5834 5834 5834 5834 5832 5831 5828 5827 5827 5826 5825 5824 5823 5822 5821 5820 5818 5816 5814 5811 5808 5805 5803 5800 5797 5793 5790 5787 5784 5781 5778 5776 5773 5771 5768 5766 5764 5762 5761 5759 5758 5757 5756 5755 5754 5753
5829 5829 5828 5829 5829 5830 5829 5830 5825 5824 5823 5822 5820 5820 5819 5818 5817 5816 5815 5813 5811 5809 5806 5804 5801 5798 5794 5791 5787 5784 5780 5777 5774 5772 5769 5766 5764 5762 5759 5758 5756 5754 5753 5752 5751 5750 5749 5748 5747
5824 5824 5824 5825 5824 5823 5823 5825 5820 5819 5817 5816 5815 5814 5814 5813 5812 5811 5809 5808 5806 5803 5801 5798 5795 5792 5788 5785 5781 5778 5774 5771 5768 5765 5762 5760 5757 5755 5753 5751 5750 5748 5747 5746 5745 5744 5743 5742 5741